This is the latest recevied weather packets stored in our database for station/object AD8BV. If no packets are shown the sender has not sent any weather packets the latest 10 day(s).
| Time | Temp. | Humidity | Pressure | Rain* | Wind** | Luminosity | Snow |
|---|---|---|---|---|---|---|---|
| 1777516602 | 6.67° C | 96% | 1015 hPa | 0 mm | - | 0 W/m² | - |
| 1777516297 | 6.67° C | 96% | 1014.9 hPa | 1.27 mm | - | 0 W/m² | - |
| 1777515993 | 6.67° C | 96% | 1014.9 hPa | 1.27 mm | - | 0 W/m² | - |
| 1777515690 | 6.67° C | 96% | 1014.9 hPa | 0 mm | - | 0 W/m² | - |
| 1777515387 | 6.67° C | 96% | 1014.9 hPa | 0 mm | - | 0 W/m² | - |
| 1777515084 | 6.67° C | 96% | 1014.9 hPa | 0 mm | - | 0 W/m² | - |
| 1777514780 | 6.67° C | 96% | 1014.6 hPa | 0 mm | - | 0 W/m² | - |
| 1777514477 | 6.67° C | 96% | 1014.9 hPa | 0 mm | - | 0 W/m² | - |
| 1777514175 | 6.67° C | 96% | 1014.6 hPa | 0 mm | - | 0 W/m² | - |
| 1777513871 | 6.67° C | 96% | 1014.6 hPa | 0 mm | - | 0 W/m² | - |
| 1777513568 | 6.67° C | 96% | 1014.7 hPa | 1.78 mm | - | 0 W/m² | - |
| 1777513265 | 6.67° C | 96% | 1014.5 hPa | 3.05 mm | - | 0 W/m² | - |
| 1777512961 | 7.22° C | 96% | 1014.6 hPa | 1.27 mm | - | 0 W/m² | - |
| 1777512657 | 7.22° C | 96% | 1014.5 hPa | 1.78 mm | - | 0 W/m² | - |
| 1777512354 | 7.22° C | 96% | 1014.3 hPa | 1.78 mm | - | 0 W/m² | - |
| 1777512051 | 7.22° C | 96% | 1014.2 hPa | 1.27 mm | - | 0 W/m² | - |
| 1777511750 | 7.22° C | 96% | 1014.1 hPa | 1.27 mm | - | 0 W/m² | - |
| 1777511446 | 7.22° C | 96% | 1014.2 hPa | 0 mm | - | 0 W/m² | - |
| 1777511143 | 7.78° C | 96% | 1014 hPa | 1.78 mm | - | 0 W/m² | - |
| 1777510838 | 7.78° C | 96% | 1014.1 hPa | 1.78 mm | - | 0 W/m² | - |
| 1777510536 | 7.78° C | 96% | 1013.9 hPa | 1.27 mm | - | 0 W/m² | - |
| 1777510232 | 7.78° C | 96% | 1013.8 hPa | 1.27 mm | - | 0 W/m² | - |
| 1777509928 | 7.78° C | 96% | 1013.6 hPa | 1.78 mm | - | 0 W/m² | - |
| 1777509624 | 7.78° C | 96% | 1013.6 hPa | 1.78 mm | - | 0 W/m² | - |
| 1777509321 | 7.78° C | 96% | 1013.5 hPa | 0 mm | - | 0 W/m² | - |
* Rain latest hour (hover to see other rain measurements)
** Current wind speed in m/s (hover to see current wind gust speed)